Location: Brienzwiler
(46.7508°N, 8.1014°E)
Time: 08:12:53
(UTC+00:00)

Atlas Centaur 2 - Pass Details

Date: 05 July 2020
Orbit: 459 x 1310 km, 30.4° (Epoch: 05 August)

Event Time Altitude Azimuth Distance (km) Brightness Sun altitude
Rises 20:28:08 0° 236° (SW) 3,282 5.4 -9.1°
Reaches altitude 10° 20:31:13 10° 217° (SW) 2,515 4.6 -9.4°
Maximum altitude 20:35:15 18° 176° (S) 2,174 3.9 -9.9°
Enters shadow 20:38:48 13° 142° (SE) 2,678 4.1 -10.3°
